TimeEDT,TemperatureF,Dew PointF,Humidity,Sea Level PressureIn,VisibilityMPH,Wind Direction,Wind SpeedMPH,Gust SpeedMPH,PrecipitationIn,Events,Conditions,WindDirDegrees,DateUTC
12:00 AM,48.9,28.9,46,29.99,-9999.0,NW,5.8,-,N/A,,Clear,310,2013-03-28 04:00:00
1:00 AM,45.0,28.9,53,29.99,-9999.0,NW,3.5,-,N/A,,Clear,310,2013-03-28 05:00:00
2:00 AM,46.0,28.9,51,29.99,-9999.0,WNW,8.1,-,N/A,,Clear,290,2013-03-28 06:00:00
3:00 AM,37.0,28.9,73,29.99,-9999.0,Calm,Calm,-,N/A,,Clear,0,2013-03-28 07:00:00
4:00 AM,36.0,28.0,73,29.99,-9999.0,Calm,Calm,-,N/A,,Clear,0,2013-03-28 08:00:00
5:00 AM,39.9,28.0,63,29.99,-9999.0,West,5.8,-,N/A,,Clear,280,2013-03-28 09:00:00
6:00 AM,37.0,27.0,67,29.99,-9999.0,Calm,Calm,-,N/A,,Clear,0,2013-03-28 10:00:00
7:00 AM,41.0,27.0,57,30.00,-9999.0,WNW,8.1,-,N/A,,Partly Cloudy,290,2013-03-28 11:00:00
8:00 AM,46.0,28.9,51,30.01,-9999.0,WNW,10.4,-,N/A,,Clear,290,2013-03-28 12:00:00
9:00 AM,48.0,28.0,46,30.01,-9999.0,WNW,10.4,18.4,N/A,,Mostly Cloudy,300,2013-03-28 13:00:00
10:00 AM,51.1,28.0,41,30.01,-9999.0,NW,11.5,20.7,N/A,,Mostly Cloudy,310,2013-03-28 14:00:00
11:00 AM,55.9,28.0,34,30.01,-9999.0,NW,10.4,17.3,N/A,,Clear,320,2013-03-28 15:00:00
12:00 PM,55.9,27.0,33,30.01,-9999.0,NW,6.9,-,N/A,,Mostly Cloudy,320,2013-03-28 16:00:00
1:00 PM,52.0,27.0,38,30.01,-9999.0,NW,8.1,17.3,N/A,,Mostly Cloudy,320,2013-03-28 17:00:00
2:00 PM,52.0,26.1,37,30.01,-9999.0,NNW,5.8,16.1,N/A,,Overcast,330,2013-03-28 18:00:00
3:00 PM,54.0,25.0,33,30.00,-9999.0,NW,6.9,-,N/A,,Overcast,320,2013-03-28 19:00:00
4:00 PM,55.9,26.1,32,30.00,-9999.0,NW,11.5,19.6,N/A,,Overcast,310,2013-03-28 20:00:00
5:00 PM,53.1,26.1,35,30.02,-9999.0,Variable,5.8,-,N/A,,Overcast,0,2013-03-28 21:00:00
7:00 PM,53.1,27.0,37,30.06,-9999.0,NW,4.6,-,N/A,,Overcast,310,2013-03-28 23:00:00
8:00 PM,53.1,27.0,37,30.08,-9999.0,NW,4.6,-,N/A,,Overcast,310,2013-03-29 00:00:00
9:00 PM,54.0,28.0,37,30.09,-9999.0,NW,4.6,-,N/A,,Overcast,310,2013-03-29 01:00:00
10:00 PM,53.1,28.0,38,30.11,-9999.0,NW,3.5,-,N/A,,Overcast,310,2013-03-29 02:00:00
11:00 PM,52.0,28.9,41,30.11,-9999.0,WNW,5.8,-,N/A,,Overcast,290,2013-03-29 03:00:00